Wind_Speed
15 15 14 11 11 16 19 16 12 10 8 10 13 16 17 17 18 19 19 18 18 18 16 16 18 18 19 18 18 16 15 14 14 15 15 15 14 14 14 13 12 11 10 9 8 8 7 6 6 4 3 2 1 1 1 1 3 4 5 5 5 6 6
16 16 14 13 13 16 18 17 14 12 9 9 13 16 17 18 19 19 20 20 20 20 19 19 19 19 19 19 19 17 16 16 16 16 16 15 15 14 14 14 13 12 11 9 8 8 7 6 6 5 3 3 3 3 3 3 3 4 5 5 5 5 5
15 17 17 16 15 16 17 18 17 12 9 10 13 15 15 16 18 19 21 21 21 22 21 21 21 21 21 20 19 19 18 18 18 17 17 17 16 16 15 14 13 12 11 9 9 8 7 6 5 5 5 5 6 6 7 7 7 7 7 7 7 6 5
17 19 19 17 17 17 18 19 17 13 12 12 14 16 15 16 18 20 21 22 22 22 21 20 21 22 22 21 20 19 19 19 19 19 18 18 17 16 15 14 14 12 11 10 10 9 8 7 6 6 6 7 8 8 9 10 10 10 9 9 9 8 8
20 19 19 20 19 18 17 16 15 14 15 15 16 18 17 16 17 19 20 20 20 21 21 22 22 22 22 22 21 20 20 20 20 20 19 19 17 16 15 15 14 13 12 11 10 10 9 8 7 7 7 8 8 9 9 10 10 11 11 11 11 10 10
21 19 21 23 21 16 13 13 14 15 17 18 17 18 16 14 15 17 18 19 19 20 20 20 20 21 21 21 21 22 22 21 20 20 20 19 18 17 17 16 15 14 13 11 10 9 8 7 7 7 8 8 9 10 10 10 10 11 11 12 12 11 11
21 20 23 25 20 14 12 13 15 17 19 21 19 17 15 13 14 16 18 18 18 19 19 18 18 18 19 19 21 22 22 21 21 20 20 19 19 19 18 17 15 14 13 11 10 8 8 8 8 9 9 10 11 11 12 12 11 12 12 12 12 11 11
21 20 23 24 19 14 13 15 18 20 23 24 21 17 15 14 14 15 16 17 18 18 18 17 17 17 18 19 20 22 22 22 22 21 20 19 19 19 18 17 16 14 13 12 11 9 9 9 9 9 10 10 11 11 12 13 12 12 12 12 11 11 11
21 19 23 23 19 15 15 17 20 23 25 24 20 16 15 15 15 14 15 17 17 18 18 18 18 18 20 20 21 21 22 22 22 21 20 19 19 18 17 17 16 15 14 13 11 10 10 9 9 9 9 10 10 11 12 12 13 12 12 12 11 11 10
22 20 22 22 19 16 15 18 23 25 24 22 19 16 16 17 17 17 16 17 18 19 20 20 20 20 21 22 23 23 22 22 21 21 20 20 19 18 17 17 16 14 14 12 11 11 10 9 9 8 9 9 10 10 10 11 11 11 11 10 10 10 10
22 21 23 24 21 18 18 19 22 22 21 20 18 16 16 18 19 19 17 17 18 20 21 21 21 21 22 22 23 22 21 21 20 21 21 21 20 19 18 16 15 14 13 12 12 11 10 9 8 9 9 9 9 9 8 8 9 9 9 9 9 9 10
21 21 24 26 24 22 21 20 21 20 18 19 18 17 17 18 19 19 19 19 19 19 20 21 21 22 22 22 22 21 20 20 20 21 21 21 20 19 17 15 14 13 12 12 12 11 10 9 9 9 8 7 7 7 7 8 8 8 7 7 7 8 8
19 20 25 27 26 24 22 21 23 22 19 18 18 18 18 18 19 19 19 19 20 20 20 21 21 21 21 21 21 21 21 21 21 22 22 22 21 19 17 15 14 13 12 12 12 11 10 10 9 8 7 7 6 7 7 8 8 8 7 6 5 4 4
19 20 26 28 27 24 21 20 24 25 22 19 19 19 19 19 19 18 17 19 21 21 21 21 21 21 21 21 21 21 21 22 22 23 23 22 20 18 17 16 14 13 12 12 11 11 11 10 9 8 7 7 7 7 7 7 8 7 6 5 4 3 3
19 21 24 26 24 21 19 21 25 27 26 22 20 21 21 20 19 18 17 18 21 22 21 21 21 21 21 21 20 21 22 23 23 23 22 21 19 18 17 16 15 14 13 12 12 12 12 11 9 8 8 8 7 7 7 7 7 7 6 5 4 3 4
19 21 21 22 21 18 18 22 26 28 28 26 23 23 23 22 20 18 15 15 18 20 21 21 21 21 20 20 21 21 22 23 23 22 21 20 19 18 17 16 15 14 13 13 13 13 12 11 10 9 9 9 8 8 7 7 7 7 6 6 5 4 4
20 22 20 21 22 19 20 23 26 27 28 25 24 24 25 23 21 18 16 14 15 17 19 20 19 19 19 20 21 22 22 22 22 21 21 20 19 19 18 17 17 16 15 15 14 14 13 13 11 10 10 9 8 8 8 7 7 7 7 7 6 5 4
23 24 22 23 24 22 22 23 23 25 26 24 22 22 23 23 22 20 18 16 15 16 17 17 17 17 17 18 19 20 20 20 20 20 20 20 20 19 19 19 18 17 17 16 16 15 15 14 13 11 11 9 9 9 9 8 8 8 8 8 7 6 5
25 27 24 23 24 23 23 22 21 23 26 26 23 21 22 23 22 21 20 19 18 16 15 16 15 14 14 14 14 14 14 14 15 16 16 16 17 17 18 17 17 17 18 18 18 18 17 16 15 13 11 10 10 10 10 10 9 10 10 9 8 7 6
25 29 27 26 26 25 24 23 23 26 29 29 27 26 25 25 25 23 23 23 21 19 17 16 16 15 14 13 12 11 12 12 11 12 13 14 15 15 15 15 16 18 19 20 21 20 19 17 16 15 13 11 12 12 12 11 11 11 12 11 10 8 7
25 28 28 28 28 28 28 27 29 31 31 30 29 29 28 29 29 27 26 25 24 22 20 19 19 18 16 15 14 13 12 12 11 12 12 13 14 14 14 15 16 17 19 20 22 22 21 20 19 18 15 14 15 15 14 13 14 14 14 14 13 12 10
24 26 28 27 27 28 28 30 32 33 32 30 28 28 28 29 29 29 28 27 26 25 24 23 22 21 19 17 16 15 14 13 13 12 12 12 13 13 14 16 17 17 18 20 22 23 24 23 21 19 17 16 16 15 15 16 17 17 17 17 16 15 13
24 25 26 26 24 23 23 25 27 28 28 29 28 28 28 28 28 28 28 28 27 27 27 26 25 23 21 19 18 17 17 16 15 14 13 13 12 12 13 15 17 18 18 19 21 23 24 23 21 20 19 18 17 16 16 19 20 20 20 19 18 17 15
24 23 24 24 23 21 20 20 20 21 22 24 26 27 28 28 28 28 28 27 27 27 27 27 25 23 21 19 17 18 19 18 17 16 15 15 14 13 14 15 16 18 19 19 20 22 24 24 23 22 21 19 18 18 19 22 23 22 21 20 20 19 18
26 24 23 23 22 21 20 19 19 19 19 20 21 22 24 25 26 27 27 27 26 25 24 23 22 21 20 19 18 18 20 20 19 19 18 17 16 16 16 17 17 17 19 20 20 21 23 24 24 23 21 19 19 20 21 23 25 24 22 22 22 21 20
28 26 25 24 23 23 21 20 20 20 20 21 21 21 21 22 22 23 25 26 26 25 24 22 21 20 20 20 20 20 21 21 21 21 21 20 19 19 20 20 18 17 17 19 20 22 23 24 23 21 20 20 20 22 22 23 24 24 23 24 24 22 21
30 30 28 26 24 23 23 22 21 20 21 22 22 22 23 23 23 24 24 24 24 24 24 24 24 24 24 23 23 22 23 23 23 24 25 24 22 22 22 22 21 19 17 17 19 22 23 24 23 23 22 22 23 23 23 24 25 25 25 25 24 23 21
33 33 32 29 26 24 23 22 22 22 22 23 23 24 24 25 26 26 26 26 25 24 24 25 25 26 26 26 25 24 24 25 24 25 26 26 24 23 23 23 22 21 19 18 18 20 22 24 24 24 24 24 25 24 24 25 26 26 26 26 24 23 22
35 34 33 31 29 27 26 24 23 23 24 24 24 24 25 25 26 26 26 26 26 26 26 26 26 27 27 27 27 27 27 28 27 28 28 28 26 25 24 24 24 23 21 20 19 19 20 22 23 24 24 24 24 25 26 27 28 27 27 26 25 24 24
35 33 32 31 30 30 28 26 24 24 23 24 24 24 24 24 25 25 26 26 26 26 26 27 27 28 28 28 28 29 30 31 31 30 30 30 29 26 25 25 25 24 23 22 21 21 20 20 21 22 22 23 24 25 26 27 28 28 27 26 25 25 26
36 34 32 32 31 31 30 29 27 25 23 23 23 23 24 24 24 25 25 25 26 26 27 27 27 27 27 27 27 28 29 30 31 31 32 31 30 28 26 26 26 26 25 24 23 22 22 21 20 21 22 23 24 25 26 27 28 28 27 26 26 26 27
39 37 35 34 34 34 34 33 31 29 26 25 25 24 24 24 24 24 24 25 25 26 27 27 27 26 26 26 26 26 26 27 29 30 32 32 31 30 29 28 28 28 27 27 25 24 24 23 22 21 22 22 23 24 26 27 28 27 26 26 27 28 29
44 42 40 38 38 39 38 37 35 33 30 28 28 27 26 25 25 25 25 25 25 26 26 26 26 26 26 26 25 25 24 25 26 28 30 32 32 32 32 31 31 30 30 29 28 27 26 25 24 23 23 23 24 25 26 28 28 27 27 28 29 30 32
47 46 43 41 41 41 41 40 39 37 35 33 32 31 29 27 26 26 25 25 25 26 26 26 26 26 26 26 25 24 24 24 24 26 28 31 32 32 33 33 34 33 33 33 32 31 30 29 28 27 27 27 27 28 29 30 30 30 30 31 32 33 35
49 47 45 42 42 44 44 43 42 40 38 37 35 33 32 30 28 27 26 26 26 27 27 27 27 27 26 26 26 25 25 25 25 26 27 29 29 30 31 33 33 34 34 35 34 34 34 33 33 33 32 32 32 33 33 33 33 34 34 35 35 36 37
47 44 42 41 42 43 44 44 44 43 42 40 38 36 35 33 31 29 28 28 27 28 29 29 29 28 28 27 27 27 27 27 27 28 28 28 28 29 30 31 32 33 33 33 34 34 35 35 36 36 36 36 36 36 37 37 37 38 38 39 39 40 40
45 42 39 38 39 40 42 43 43 44 44 43 41 39 38 37 35 33 31 30 30 30 30 30 30 30 29 29 29 29 29 29 29 30 30 30 30 30 30 31 32 32 33 33 34 35 35 36 37 38 39 39 39 39 39 39 39 40 40 41 42 42 42
49 46 43 41 39 38 40 42 43 43 43 44 44 42 40 39 38 36 35 33 32 32 32 32 32 32 32 31 31 31 30 30 30 31 31 31 31 31 32 32 33 34 34 35 35 36 37 38 39 40 40 40 40 40 40 41 41 41 42 43 43 43 43
Wind_Direction
189 185 190 206 231 242 238 230 223 217 204 195 196 197 199 202 205 206 208 204 198 196 199 201 202 202 202 202 202 201 197 192 193 194 190 186 182 179 179 182 184 185 185 182 174 173 172 164 159 159 154 146 137 104 32 340 331 336 348 3 14 15 11
196 187 191 204 220 230 233 233 229 223 217 210 206 204 201 203 207 207 207 206 199 195 196 199 199 200 201 201 200 199 195 191 191 192 189 184 180 178 181 184 186 187 187 183 175 175 177 173 170 176 191 215 242 264 272 274 277 283 294 311 331 350 359
198 183 185 192 201 212 225 235 236 229 227 224 214 209 205 207 211 210 208 208 203 197 197 199 199 199 201 200 199 197 194 191 190 189 187 182 179 179 181 184 189 189 187 185 187 190 191 193 198 207 224 242 257 267 272 274 274 272 272 280 289 302 318
211 192 188 191 195 204 219 232 236 231 224 226 220 209 204 207 212 213 212 211 208 202 200 201 202 203 202 200 199 197 193 190 189 187 184 182 180 179 180 184 188 191 191 192 198 205 209 217 226 236 246 256 262 267 272 275 277 278 276 276 278 281 286
223 207 195 192 193 200 214 228 235 231 223 224 225 214 204 204 209 213 214 213 212 208 203 203 205 205 204 202 198 194 192 190 187 185 182 180 178 177 179 184 185 189 194 197 203 210 218 227 236 244 251 258 262 265 268 272 275 278 279 279 279 279 279
226 212 194 186 189 197 216 233 237 234 225 225 228 220 206 201 208 212 211 211 213 213 210 209 208 206 206 204 198 193 192 190 187 184 182 179 177 176 178 181 182 185 191 194 200 207 214 225 234 243 249 254 258 261 263 265 268 271 275 278 280 281 281
225 211 193 186 189 198 218 236 241 235 225 222 224 216 202 198 204 208 207 208 210 213 213 213 211 209 208 205 199 194 190 188 186 184 183 181 178 176 176 177 178 181 183 185 192 203 214 226 236 243 248 251 255 259 261 261 262 263 266 270 275 279 281
222 204 191 189 192 200 217 235 240 231 221 219 217 207 198 197 200 202 205 207 209 211 210 208 206 204 203 201 197 193 188 185 184 184 185 184 181 178 176 175 178 179 180 185 192 204 218 229 236 240 244 249 252 257 261 261 260 260 260 262 267 272 279
216 198 189 192 194 202 220 231 230 222 215 215 212 201 197 197 194 196 203 206 207 207 205 201 198 196 193 189 188 189 187 184 184 185 186 186 184 181 180 179 182 183 186 192 196 202 214 224 233 239 245 251 255 256 259 261 261 261 261 261 264 268 274
213 199 192 193 192 199 216 220 215 213 212 213 208 198 195 193 191 192 198 203 204 202 200 196 192 191 188 185 186 187 186 184 185 186 186 187 187 185 185 187 188 190 192 195 195 200 210 218 227 238 248 255 260 262 262 261 260 259 259 259 260 264 270
213 200 192 190 186 192 203 205 205 208 211 211 204 195 193 192 192 189 190 199 203 202 201 196 192 189 188 189 190 188 187 186 186 186 187 189 189 189 191 192 191 192 194 195 196 202 210 216 226 236 245 254 263 268 268 264 258 252 248 246 245 249 255
211 200 192 187 185 191 200 203 203 204 207 207 199 193 193 191 189 185 185 194 200 201 201 197 194 191 190 192 193 191 190 189 187 188 189 190 190 191 192 191 189 191 194 197 201 206 211 218 228 237 245 254 260 262 260 256 254 251 246 242 238 240 246
209 200 190 186 187 192 202 212 212 208 206 204 197 191 191 188 184 181 185 193 198 199 199 196 195 194 194 195 196 196 195 191 189 189 190 190 191 190 189 187 187 190 194 199 205 209 215 222 229 237 246 254 252 247 242 240 241 241 240 239 234 228 225
207 198 189 188 192 195 204 217 216 209 205 202 198 191 187 184 182 182 187 194 197 197 196 196 195 195 195 196 198 199 198 194 192 190 190 191 190 189 188 187 187 190 195 202 207 212 221 227 230 234 240 245 244 240 234 231 228 224 219 215 205 185 157
205 201 194 191 194 196 203 211 210 205 203 202 201 194 187 183 185 188 190 194 196 196 194 194 194 194 194 194 194 197 197 196 193 192 192 193 191 189 189 188 190 192 196 204 210 215 223 229 230 232 234 236 236 233 230 227 221 212 201 190 176 152 123
205 204 198 190 188 189 193 200 202 201 201 204 204 197 191 187 189 193 194 195 195 194 192 190 190 192 191 189 189 191 194 196 196 196 196 196 194 194 194 195 197 198 201 208 213 217 224 228 229 229 230 230 229 227 226 224 216 204 191 177 163 147 128
207 203 195 183 182 186 191 197 200 199 199 202 204 201 196 193 192 193 195 195 190 189 189 186 183 184 183 183 187 191 194 197 199 201 202 202 203 203 204 205 205 205 208 214 216 218 223 227 228 229 229 226 224 224 224 223 216 204 192 184 174 164 157
207 200 193 184 182 188 194 196 199 199 199 198 199 201 202 199 195 192 192 191 186 185 185 180 176 175 176 180 186 190 192 196 199 204 206 208 211 212 213 215 215 215 217 220 220 220 221 224 226 228 228 223 218 219 222 222 219 212 206 202 194 185 178
206 198 192 188 188 192 195 194 194 199 200 197 194 198 204 205 199 193 191 192 191 190 186 178 175 175 176 181 185 184 188 192 197 203 208 213 216 219 221 222 224 226 226 225 224 222 220 222 224 226 227 221 215 217 221 222 223 223 222 220 215 206 198
207 197 192 191 191 195 199 199 196 196 197 196 195 196 200 201 199 196 194 194 194 194 190 183 183 184 184 187 189 189 194 198 201 206 210 216 221 224 226 226 228 230 229 227 226 223 220 220 223 224 222 217 215 217 220 222 226 229 230 230 231 228 221
210 202 198 195 193 196 199 198 193 192 193 195 195 196 195 194 196 197 197 196 196 197 195 192 191 190 189 191 195 199 204 208 212 214 215 217 222 225 226 227 229 231 230 228 226 222 219 219 220 222 219 216 216 217 219 223 227 230 232 232 235 237 236
214 210 206 201 197 196 195 192 191 193 196 195 196 197 195 193 196 197 197 198 197 197 197 196 195 192 191 194 200 207 212 216 222 226 228 230 230 229 228 226 228 230 230 228 225 222 220 220 220 222 222 221 220 217 217 222 226 229 231 233 237 241 243
215 216 213 210 207 202 196 193 193 195 198 197 198 200 199 197 198 200 200 200 199 197 196 196 196 195 193 194 199 208 215 222 229 234 240 243 242 239 235 229 226 227 230 230 227 223 221 221 221 222 222 223 224 222 221 224 228 230 232 235 241 245 248
215 217 218 217 218 215 209 206 202 199 197 197 199 203 204 202 202 202 203 204 203 201 198 195 195 196 196 196 200 208 215 223 231 236 242 247 250 248 245 239 233 228 229 230 228 224 222 222 222 223 222 222 224 225 224 226 230 233 234 237 242 245 247
215 217 219 220 221 221 218 216 214 211 208 204 203 205 207 206 204 203 204 206 206 206 203 198 198 201 203 205 210 214 217 221 228 234 239 247 254 255 252 248 244 236 231 230 229 225 223 224 225 226 227 226 226 226 224 225 228 231 232 234 237 239 242
218 218 220 222 222 222 220 218 217 217 216 214 211 211 210 207 205 204 204 206 207 208 209 209 212 216 219 221 224 225 225 224 225 230 236 241 249 255 255 251 249 247 241 235 231 228 226 227 227 228 230 230 231 231 229 226 226 228 228 229 232 235 239
224 224 224 224 223 224 222 220 218 216 216 215 214 214 213 209 206 204 205 206 208 211 214 216 220 225 228 231 231 232 233 232 228 229 234 239 244 250 253 252 250 250 249 244 238 235 232 231 230 228 229 231 232 232 231 228 227 227 227 228 231 234 241
226 227 227 226 225 225 224 222 220 218 217 216 215 215 213 210 207 206 206 207 209 211 214 218 222 226 228 231 233 234 236 237 234 231 232 238 243 246 250 251 249 249 249 247 244 241 238 236 234 231 230 230 230 229 228 228 228 227 228 230 232 237 244
227 228 227 226 225 225 224 223 222 219 217 215 214 214 214 213 211 209 208 209 210 211 213 216 219 224 227 228 230 231 231 232 234 233 232 235 240 243 245 246 247 248 248 248 247 245 243 241 239 237 233 231 229 228 227 228 229 229 229 230 233 239 245
225 226 228 228 228 228 227 226 226 223 220 216 213 212 214 215 214 212 210 209 210 211 212 214 216 220 224 226 227 228 228 227 228 230 231 232 236 239 241 242 243 244 246 246 247 247 247 246 244 241 236 231 229 229 229 230 231 231 231 233 236 241 245
223 224 227 229 232 233 231 230 231 230 226 222 218 214 212 213 214 215 214 211 210 211 212 212 214 217 221 224 225 227 227 227 226 227 228 230 232 234 237 239 241 242 244 246 246 246 247 247 246 242 238 233 231 231 232 233 234 235 235 237 240 243 247
224 226 227 229 232 235 234 232 233 233 230 226 225 222 217 215 215 217 218 216 213 212 212 212 213 215 218 222 224 226 227 227 226 225 225 227 228 229 231 235 238 241 243 246 246 246 247 247 245 243 240 238 235 234 234 236 237 237 237 237 240 243 246
225 226 228 229 231 233 233 233 232 232 229 226 226 226 223 220 219 219 220 220 218 217 216 215 215 217 220 223 225 227 228 229 228 226 225 224 225 225 227 230 235 238 241 244 246 246 246 247 246 244 242 240 239 237 237 239 240 239 238 238 241 244 247
223 226 228 229 229 230 231 233 233 231 228 225 226 226 225 223 222 222 223 223 224 223 221 220 218 219 222 226 229 230 232 232 233 232 230 228 228 227 227 228 232 235 238 241 243 244 245 246 246 245 244 242 241 241 242 244 245 245 244 244 247 250 253
225 228 230 230 229 229 231 234 236 235 231 228 227 227 227 226 225 226 226 226 227 227 227 225 223 223 224 227 231 234 235 236 236 236 236 236 236 236 234 234 234 236 238 239 241 243 244 245 246 246 246 245 244 245 246 248 249 250 251 252 254 257 261
225 225 226 227 228 230 232 235 236 237 236 234 231 231 231 230 228 228 228 229 230 231 230 230 228 228 228 231 234 236 237 237 238 239 240 241 242 242 242 242 243 244 244 244 244 244 245 246 247 247 247 246 246 247 248 250 251 253 254 256 258 261 265
219 217 219 223 225 229 234 236 237 237 238 238 237 236 236 234 233 232 232 231 231 232 233 233 233 233 233 235 237 239 240 240 241 241 241 242 242 243 244 245 246 247 248 248 247 247 248 248 249 249 248 248 247 248 249 251 253 255 256 258 260 262 265
218 219 222 224 226 230 236 238 238 237 238 239 240 241 240 239 238 238 238 237 235 234 235 235 236 236 236 237 238 240 242 243 244 244 245 244 244 244 245 246 247 248 249 249 249 249 249 249 249 250 250 250 250 249 250 252 253 255 257 259 261 263 265
Height
5876 5878 5879 5881 5883 5884 5886 5888 5890 5891 5892 5895 5896 5896 5897 5899 5900 5902 5905 5907 5909 5911 5913 5916 5918 5920 5922 5924 5926 5928 5929 5931 5932 5934 5935 5937 5938 5939 5941 5942 5943 5944 5945 5946 5947 5948 5949 5950 5951 5951 5952 5953 5953 5953 5954 5953 5953 5953 5954 5954 5954 5954 5954
5874 5876 5878 5880 5882 5883 5885 5886 5888 5889 5891 5893 5895 5895 5896 5898 5899 5901 5903 5905 5907 5909 5911 5914 5916 5919 5921 5923 5925 5926 5928 5929 5931 5932 5934 5936 5937 5938 5939 5941 5942 5943 5944 5946 5947 5948 5949 5949 5950 5951 5952 5952 5953 5953 5953 5953 5954 5953 5953 5953 5953 5954 5953
5872 5874 5876 5878 5880 5883 5884 5885 5886 5888 5890 5891 5893 5894 5895 5897 5899 5900 5902 5904 5906 5907 5909 5912 5914 5917 5919 5921 5923 5924 5926 5928 5929 5931 5932 5934 5935 5937 5938 5940 5941 5942 5944 5945 5946 5947 5948 5949 5950 5951 5951 5952 5952 5952 5952 5952 5953 5953 5953 5952 5952 5953 5953
5870 5873 5875 5877 5879 5881 5882 5884 5885 5887 5888 5890 5892 5893 5893 5895 5897 5899 5901 5903 5905 5906 5908 5911 5913 5915 5917 5920 5922 5923 5924 5926 5928 5929 5931 5932 5934 5936 5937 5938 5940 5941 5943 5944 5945 5946 5947 5948 5949 5950 5950 5951 5951 5951 5951 5951 5951 5951 5951 5951 5951 5952 5952
5868 5871 5872 5874 5877 5879 5880 5882 5883 5885 5887 5888 5890 5891 5891 5893 5895 5897 5900 5902 5904 5906 5907 5909 5911 5913 5916 5918 5920 5921 5923 5924 5926 5928 5929 5931 5933 5934 5936 5937 5939 5940 5942 5943 5944 5946 5946 5947 5948 5948 5949 5949 5950 5950 5950 5950 5950 5950 5950 5950 5950 5951 5951
5866 5868 5870 5872 5874 5876 5879 5880 5881 5883 5885 5886 5888 5890 5891 5892 5894 5896 5898 5901 5903 5905 5906 5908 5910 5912 5915 5917 5919 5920 5921 5923 5925 5927 5928 5930 5931 5933 5934 5936 5937 5939 5940 5942 5943 5944 5945 5946 5946 5947 5947 5948 5948 5949 5949 5949 5949 5949 5949 5949 5949 5949 5950
5863 5866 5868 5870 5872 5875 5877 5878 5879 5881 5883 5884 5886 5888 5889 5891 5893 5895 5897 5899 5901 5903 5906 5908 5909 5911 5913 5916 5918 5919 5920 5922 5924 5926 5927 5929 5930 5931 5933 5934 5936 5937 5939 5940 5942 5943 5944 5945 5945 5946 5946 5947 5947 5947 5947 5948 5948 5948 5948 5948 5948 5948 5948
5860 5863 5866 5868 5870 5872 5875 5876 5877 5879 5880 5882 5884 5886 5888 5889 5891 5893 5895 5898 5900 5902 5904 5906 5908 5910 5912 5914 5917 5918 5919 5921 5922 5924 5926 5927 5929 5930 5931 5933 5934 5936 5937 5939 5940 5941 5942 5943 5944 5944 5945 5945 5945 5946 5946 5946 5947 5947 5947 5948 5948 5948 5947
5857 5860 5863 5866 5868 5870 5872 5874 5875 5876 5878 5880 5882 5884 5886 5888 5890 5892 5894 5896 5898 5900 5903 5904 5906 5908 5910 5912 5915 5917 5918 5920 5921 5923 5925 5926 5928 5929 5930 5931 5933 5934 5936 5937 5939 5940 5941 5942 5942 5943 5943 5943 5944 5944 5944 5944 5945 5945 5945 5946 5946 5947 5947
5854 5858 5861 5862 5865 5867 5869 5871 5872 5874 5877 5879 5881 5883 5884 5886 5889 5890 5892 5895 5897 5899 5901 5903 5904 5906 5909 5911 5913 5915 5917 5919 5920 5922 5924 5925 5927 5928 5929 5930 5931 5933 5934 5936 5937 5938 5939 5940 5941 5941 5942 5942 5942 5942 5943 5943 5943 5943 5944 5944 5945 5945 5945
5851 5855 5858 5859 5861 5864 5866 5868 5871 5873 5876 5878 5880 5881 5883 5885 5887 5889 5891 5893 5895 5897 5899 5901 5903 5905 5907 5909 5912 5914 5916 5918 5919 5921 5922 5924 5925 5927 5928 5929 5930 5931 5933 5934 5935 5936 5937 5938 5939 5940 5940 5940 5940 5940 5940 5941 5941 5942 5942 5943 5943 5944 5944
5848 5852 5855 5856 5859 5861 5864 5867 5869 5873 5875 5877 5878 5880 5882 5884 5885 5888 5890 5891 5894 5896 5898 5900 5901 5903 5905 5908 5910 5913 5915 5916 5918 5919 5921 5922 5924 5925 5926 5927 5928 5930 5931 5932 5933 5934 5936 5937 5937 5938 5938 5939 5939 5939 5939 5939 5939 5939 5940 5941 5942 5942 5943
5846 5850 5852 5854 5857 5859 5862 5865 5867 5871 5873 5875 5876 5878 5880 5882 5884 5886 5888 5890 5892 5894 5896 5898 5900 5902 5904 5906 5909 5911 5913 5915 5916 5918 5919 5920 5922 5923 5924 5925 5926 5928 5929 5930 5931 5933 5934 5935 5935 5936 5937 5937 5937 5937 5937 5938 5938 5938 5939 5939 5940 5941 5941
5844 5847 5850 5852 5854 5857 5861 5863 5865 5868 5871 5873 5874 5877 5879 5880 5882 5884 5886 5889 5891 5893 5895 5896 5898 5900 5902 5905 5907 5909 5911 5913 5914 5916 5917 5919 5920 5922 5923 5923 5924 5926 5927 5928 5930 5931 5932 5933 5934 5935 5935 5936 5936 5936 5936 5937 5937 5938 5938 5939 5939 5940 5940
5842 5844 5847 5849 5852 5856 5859 5861 5863 5866 5869 5871 5873 5875 5877 5879 5880 5882 5884 5887 5889 5891 5893 5895 5897 5898 5900 5903 5905 5907 5909 5911 5913 5915 5916 5917 5919 5920 5921 5922 5923 5924 5925 5926 5928 5929 5930 5931 5932 5933 5934 5934 5935 5935 5935 5936 5936 5937 5937 5938 5938 5938 5939
5840 5842 5844 5847 5851 5855 5858 5860 5862 5864 5867 5869 5871 5873 5875 5877 5879 5881 5883 5885 5888 5890 5892 5893 5895 5897 5899 5901 5903 5905 5907 5909 5912 5914 5915 5917 5918 5918 5919 5920 5921 5922 5923 5924 5926 5927 5928 5930 5931 5932 5932 5933 5933 5934 5934 5934 5935 5936 5936 5937 5937 5937 5938
5838 5841 5843 5846 5849 5853 5856 5858 5860 5862 5865 5867 5870 5872 5874 5876 5877 5879 5882 5884 5887 5889 5890 5892 5894 5896 5898 5900 5901 5903 5905 5908 5910 5912 5914 5915 5916 5916 5917 5918 5919 5920 5921 5922 5924 5925 5926 5927 5929 5930 5930 5931 5932 5932 5933 5933 5934 5935 5935 5935 5936 5936 5936
5836 5839 5842 5844 5847 5851 5854 5857 5859 5861 5864 5866 5869 5871 5873 5874 5876 5878 5881 5883 5885 5887 5889 5891 5893 5894 5896 5898 5900 5902 5904 5906 5908 5910 5912 5913 5914 5914 5915 5915 5916 5917 5918 5920 5921 5923 5924 5925 5926 5927 5928 5929 5930 5931 5931 5932 5933 5933 5934 5934 5935 5935 5935
5834 5837 5840 5843 5846 5849 5852 5855 5857 5860 5862 5864 5866 5869 5871 5873 5875 5877 5880 5882 5884 5886 5887 5889 5891 5893 5895 5897 5899 5901 5903 5905 5906 5908 5909 5910 5911 5912 5912 5913 5915 5915 5916 5917 5918 5920 5921 5922 5924 5925 5926 5927 5928 5929 5930 5930 5931 5932 5932 5933 5933 5933 5934
5832 5835 5838 5840 5843 5846 5849 5851 5854 5856 5859 5861 5863 5865 5867 5870 5873 5875 5877 5879 5882 5884 5886 5888 5890 5892 5894 5896 5898 5900 5902 5903 5905 5906 5907 5908 5908 5909 5910 5912 5912 5913 5914 5915 5915 5917 5919 5920 5921 5922 5924 5925 5926 5927 5928 5929 5929 5930 5930 5931 5931 5931 5932
5829 5832 5835 5837 5840 5842 5845 5847 5850 5853 5855 5857 5859 5861 5864 5867 5870 5873 5875 5877 5880 5882 5884 5886 5889 5891 5893 5895 5897 5898 5900 5902 5903 5904 5904 5905 5906 5906 5908 5909 5910 5910 5911 5912 5913 5914 5916 5917 5918 5919 5921 5922 5923 5924 5925 5926 5927 5928 5928 5928 5928 5929 5929
5827 5829 5832 5835 5837 5839 5842 5845 5848 5850 5853 5855 5857 5860 5862 5865 5868 5870 5873 5876 5878 5881 5883 5885 5887 5889 5891 5893 5895 5896 5898 5899 5900 5901 5902 5902 5903 5904 5905 5906 5907 5907 5908 5909 5910 5911 5912 5914 5915 5917 5918 5919 5920 5922 5923 5924 5924 5925 5925 5926 5926 5926 5927
5825 5827 5829 5832 5834 5837 5840 5843 5845 5848 5850 5853 5855 5858 5861 5864 5866 5869 5871 5874 5876 5879 5881 5883 5885 5887 5889 5891 5892 5894 5896 5897 5898 5899 5899 5900 5900 5901 5902 5903 5904 5904 5905 5906 5907 5909 5910 5912 5913 5914 5915 5916 5917 5919 5921 5921 5921 5922 5922 5923 5923 5923 5924
5822 5825 5827 5829 5831 5834 5837 5840 5843 5845 5848 5851 5853 5856 5858 5861 5864 5866 5869 5872 5874 5877 5878 5880 5883 5884 5886 5888 5890 5891 5893 5894 5895 5896 5897 5897 5898 5899 5899 5900 5901 5902 5902 5903 5905 5906 5907 5908 5909 5911 5912 5914 5915 5917 5917 5918 5918 5918 5920 5920 5920 5921 5921
5819 5822 5824 5826 5829 5831 5834 5837 5839 5842 5845 5848 5851 5853 5856 5858 5860 5863 5866 5868 5871 5874 5876 5878 5880 5881 5883 5885 5886 5888 5890 5892 5893 5894 5895 5895 5895 5896 5897 5898 5898 5899 5900 5901 5902 5903 5904 5905 5906 5908 5909 5911 5912 5913 5914 5915 5915 5916 5917 5918 5918 5918 5919
5816 5819 5821 5824 5826 5828 5831 5833 5836 5838 5841 5844 5847 5850 5853 5855 5857 5859 5862 5864 5867 5869 5872 5874 5876 5878 5880 5881 5883 5885 5887 5889 5890 5892 5893 5893 5893 5893 5894 5895 5896 5896 5897 5898 5899 5900 5901 5902 5904 5905 5907 5908 5909 5910 5910 5911 5912 5913 5914 5914 5915 5915 5916
5814 5816 5819 5821 5823 5826 5828 5830 5833 5836 5838 5840 5843 5846 5848 5851 5853 5855 5858 5860 5863 5865 5867 5870 5872 5874 5876 5878 5880 5882 5884 5886 5887 5889 5890 5891 5891 5891 5891 5892 5893 5894 5895 5896 5897 5898 5899 5900 5901 5903 5904 5905 5905 5906 5907 5907 5908 5909 5910 5910 5911 5912 5913
5811 5814 5816 5819 5821 5823 5825 5828 5830 5833 5835 5837 5839 5842 5844 5847 5849 5851 5854 5856 5859 5861 5863 5866 5868 5870 5872 5874 5876 5878 5880 5882 5884 5885 5886 5887 5888 5888 5889 5889 5890 5891 5892 5893 5894 5895 5896 5897 5898 5899 5900 5901 5902 5903 5903 5903 5904 5905 5906 5907 5908 5909 5909
5808 5811 5813 5816 5818 5820 5823 5825 5828 5830 5832 5834 5836 5838 5841 5843 5845 5848 5850 5853 5855 5857 5859 5861 5864 5866 5868 5870 5872 5874 5875 5877 5879 5880 5882 5883 5884 5885 5886 5887 5887 5888 5889 5890 5891 5892 5893 5894 5895 5896 5897 5898 5899 5899 5900 5900 5900 5901 5902 5904 5905 5905 5905
5805 5807 5810 5812 5815 5817 5820 5822 5825 5827 5828 5830 5833 5835 5837 5840 5842 5845 5847 5849 5851 5853 5855 5857 5859 5861 5863 5865 5867 5868 5870 5872 5873 5875 5877 5878 5880 5881 5882 5883 5884 5885 5886 5887 5888 5889 5890 5891 5891 5892 5893 5894 5895 5896 5896 5896 5897 5898 5899 5900 5901 5902 5902
5801 5803 5806 5809 5811 5813 5816 5819 5821 5823 5825 5827 5829 5832 5834 5836 5839 5841 5843 5845 5847 5849 5851 5853 5855 5857 5858 5860 5862 5864 5865 5867 5868 5870 5872 5874 5875 5877 5879 5880 5881 5882 5883 5884 5885 5886 5887 5888 5888 5889 5890 5891 5891 5892 5893 5893 5893 5894 5896 5898 5898 5898 5899
5797 5800 5803 5805 5807 5809 5812 5815 5817 5820 5822 5824 5826 5828 5831 5833 5835 5838 5840 5842 5844 5846 5847 5849 5851 5853 5854 5856 5858 5859 5861 5862 5864 5865 5867 5869 5871 5873 5874 5876 5877 5878 5879 5881 5882 5883 5884 5885 5885 5886 5887 5888 5888 5889 5889 5889 5890 5891 5893 5894 5894 5895 5895
5793 5796 5799 5802 5804 5806 5808 5810 5813 5816 5819 5821 5823 5825 5827 5830 5832 5834 5836 5838 5841 5842 5844 5846 5848 5849 5851 5853 5854 5856 5857 5859 5860 5862 5863 5865 5866 5868 5870 5871 5873 5874 5876 5877 5878 5879 5880 5881 5882 5883 5884 5884 5885 5886 5886 5885 5886 5888 5890 5890 5890 5891 5891
5789 5792 5795 5798 5800 5802 5804 5806 5809 5812 5815 5818 5820 5822 5824 5826 5829 5831 5833 5835 5837 5839 5841 5843 5845 5847 5849 5850 5852 5853 5855 5856 5857 5858 5860 5861 5862 5863 5865 5867 5869 5870 5871 5872 5873 5875 5876 5877 5878 5879 5880 5881 5881 5882 5881 5882 5883 5884 5885 5886 5886 5886 5886
5785 5788 5791 5794 5796 5798 5800 5802 5805 5808 5811 5813 5816 5819 5821 5823 5826 5828 5830 5832 5834 5836 5838 5840 5842 5844 5846 5847 5849 5850 5852 5853 5854 5855 5856 5857 5859 5860 5862 5863 5865 5866 5867 5868 5869 5870 5871 5872 5873 5874 5875 5876 5877 5877 5877 5878 5879 5880 5880 5881 5881 5881 5881
5780 5783 5786 5789 5792 5794 5796 5798 5801 5804 5806 5809 5812 5814 5816 5819 5822 5824 5826 5829 5830 5832 5834 5836 5839 5841 5842 5844 5845 5847 5848 5849 5850 5852 5853 5854 5856 5857 5859 5860 5861 5861 5863 5864 5865 5866 5866 5867 5868 5869 5870 5871 5872 5872 5873 5873 5874 5874 5875 5876 5876 5876 5876
5776 5779 5782 5785 5787 5790 5793 5795 5797 5800 5802 5804 5807 5810 5812 5814 5817 5820 5822 5824 5826 5828 5830 5832 5835 5837 5839 5840 5841 5843 5844 5845 5847 5848 5849 5851 5852 5853 5854 5855 5856 5857 5858 5859 5860 5861 5862 5862 5863 5863 5864 5865 5866 5867 5868 5868 5868 5869 5869 5870 5870 5871 5871
5772 5774 5777 5780 5783 5786 5789 5791 5794 5796 5798 5800 5802 5805 5807 5810 5812 5815 5817 5820 5822 5824 5826 5828 5830 5832 5834 5836 5837 5839 5840 5841 5842 5844 5845 5847 5848 5849 5850 5851 5852 5853 5853 5854 5855 5856 5857 5857 5857 5858 5859 5860 5861 5861 5862 5862 5863 5863 5864 5864 5864 5865 5865